CAPE
0 0 0 0 0 0 0 0 0 0 0 0 0 0 0 0 0 0 0 1159 1058 1041 2522 1957 1560 1714 1802 1879 1978 2143 2262 2302 2192 1995 1986 2028 2023 2132 2269 2351 2419 2323 2607 2383 1908 1827 1812 2276 2238
0 0 0 0 0 0 0 0 0 0 0 0 0 0 0 0 0 0 1 355 906 1319 2308 2033 1550 1658 1798 1796 1956 2221 2482 2540 2282 2120 2127 2133 2134 2253 2366 2335 2198 2127 2574 2153 1904 1987 2296 2269 1802
0 0 0 0 0 0 0 0 0 0 0 0 0 0 0 0 0 0 19 854 1346 1491 2153 2211 1575 1597 1750 1736 1895 2214 2453 2388 2258 2145 2290 2257 2277 2376 2397 2220 2030 2160 2293 2177 1952 1869 2405 1740 1492
0 0 0 0 0 0 0 0 0 0 0 0 0 0 0 0 0 0 15 1061 1515 1737 2131 1501 1557 1590 1753 1753 1888 2173 2274 2244 2171 2186 2322 2393 2419 2469 2384 2146 2225 2191 2329 2414 2134 2014 1817 1369 1286
0 0 0 0 0 0 0 0 0 0 0 0 0 0 0 0 0 0 136 577 1544 1753 2211 2566 1560 1577 1780 1899 1961 2060 2070 2104 2124 2214 2295 2382 2455 2451 2211 2052 2205 2347 2389 2378 1990 1853 1465 1232 1191
0 0 0 0 0 0 0 0 0 0 0 0 0 0 0 0 0 0 231 852 1793 1722 2267 3073 1657 1551 1721 1849 1832 1768 1877 2012 2124 2187 2263 2388 2326 2110 2049 2043 2173 2302 2234 2078 1850 1453 1322 1185 1146
0 0 0 0 0 0 0 0 0 0 0 0 0 0 0 0 0 0 0 880 1801 2418 2521 2883 2650 2052 1535 1717 1648 1512 1651 1888 2075 2140 2231 2222 1898 1878 1857 1949 2073 2140 2021 1848 1572 1278 1160 1137 1033
0 0 0 0 0 0 0 0 0 0 0 0 0 0 0 0 0 0 0 0 1396 2395 2936 3067 3110 2650 2331 2140 1514 1358 1423 1650 1875 1987 2080 1874 1689 1684 1671 1718 1863 1933 1914 1756 1424 1128 1048 1028 838
0 0 0 0 0 0 0 0 0 0 0 0 0 0 0 0 0 0 0 0 0 1553 2638 3039 3120 2952 2744 2613 2143 1301 1273 1440 1589 1812 1858 1770 2011 2122 1981 1633 1646 1713 1609 1405 1199 1016 942 749 572
0 0 0 0 0 0 0 0 0 0 0 0 0 0 0 0 0 0 0 0 0 0 1608 2657 2874 2849 2740 2353 2736 2304 2020 1839 1900 1905 2232 2140 1909 2101 1776 1360 1384 1447 1241 1005 944 890 615 663 1249
0 0 0 0 0 0 0 0 0 0 0 0 0 0 0 0 0 0 0 0 0 0 0 2063 2650 2571 2319 2536 2277 2423 2120 1970 2104 2173 2663 2343 2275 2750 1966 2329 1751 1777 951 1307 914 1012 1272 1028 1352
0 0 0 0 0 0 0 0 0 0 0 0 0 0 0 0 0 0 0 0 0 0 0 86 2130 2154 2193 2419 2138 2101 2031 2126 2033 2106 2499 2816 2633 2499 2031 1847 1831 2123 1517 1480 1064 1038 1031 1320 1511
0 0 0 0 0 0 0 0 0 0 0 0 0 0 0 0 0 0 0 0 0 0 0 0 1077 2191 2124 2337 2194 2240 2361 2059 1927 2076 2614 2854 2540 2594 2016 2280 1860 1809 1685 1542 1378 1482 1499 1259 1289
0 0 0 0 0 0 0 0 0 0 0 0 0 0 0 0 0 0 0 0 0 0 0 0 44 2317 2070 2038 2926 2628 2606 2115 2212 2439 2528 2916 2778 2706 2468 2078 1877 1811 1903 1706 1639 1371 1201 1224 1303
0 0 0 0 0 0 0 0 0 0 0 0 0 0 0 0 0 0 0 0 0 0 0 0 0 1965 2620 2029 2148 2446 2063 2184 2053 2274 2484 2985 2687 2853 2840 2263 2203 1981 1848 1811 1653 1586 1207 1168 1037
0 0 0 0 0 0 0 0 0 0 0 0 0 0 0 0 0 0 0 0 0 0 0 0 0 0 2862 2448 2093 2257 1911 2035 2031 2110 2075 2521 2717 2448 2837 2179 2029 2105 1686 1765 1696 1602 1277 1276 1173
0 0 0 0 0 0 0 0 0 0 0 0 0 0 0 0 0 0 0 0 0 0 0 0 0 0 1263 2490 2240 2593 2498 2108 1807 2026 2014 2169 2357 2237 2379 2018 2097 2419 1842 1921 1717 1623 1565 1190 1137
0 0 0 0 0 0 0 0 0 0 0 0 0 0 0 0 2 4 1 0 0 0 0 0 0 0 0 2590 2353 2058 2037 1889 1732 2005 2152 2189 2057 2071 2092 1923 1844 2072 2011 1364 1692 1818 1586 1542 1125
0 0 0 0 0 0 0 0 0 0 14 0 0 0 0 0 0 0 0 0 0 0 0 0 0 0 0 2120 2337 2295 2085 1996 2020 1721 2231 2087 1887 1849 2039 1813 1678 1880 1917 1431 1402 1612 1707 1424 1527
0 0 0 0 0 0 0 0 0 0 0 0 0 0 0 3 4 4 2 4 35 14 31 49 0 0 0 14 2295 2172 1964 1944 1978 1761 2170 2533 1944 1742 1951 1807 1701 1644 1405 1410 1445 1526 1422 1680 1649
0 0 0 0 0 0 1 0 36 24 0 0 0 0 1 5 12 20 16 7 12 5 1 6 5 20 0 26 1980 1811 2222 1949 1800 1681 1999 2507 2123 1579 1618 1832 1519 1423 1370 1400 1423 1391 1240 1420 1445
0 0 0 0 0 0 0 24 153 0 0 0 0 1 5 9 13 11 16 17 11 10 10 0 2 2 0 37 531 1715 1909 1746 1468 1714 1794 2261 2488 1670 1695 1768 1469 1306 1186 1183 1048 1406 1305 1283 741
0 0 0 0 2 28 29 160 218 0 0 0 4 10 8 9 14 9 9 10 20 16 6 6 4 14 9 13 161 2041 1637 2148 1894 1978 2013 2301 2482 2087 1497 1572 1592 1201 1028 1027 1328 1069 1244 1398 933
0 0 0 46 102 106 145 111 130 2 8 13 13 11 13 21 22 21 8 8 20 21 14 3 3 4 2 7 632 2344 1681 2162 1562 2032 2406 2201 1976 1898 2313 1538 1728 1491 1162 986 1211 1093 1156 1192 1135
0 10 34 89 130 139 34 86 2 3 4 5 15 18 13 21 24 24 11 11 10 17 18 16 9 7 2 5 4 0 1332 1433 2157 1232 1898 1901 1454 1467 2069 2322 2197 1477 1230 1095 1210 1080 979 1188 837
0 16 76 22 102 77 47 148 9 1 5 7 7 20 14 21 25 18 15 15 11 21 16 36 21 11 3 10 6 6 6 1 2 0 1 1059 1430 1404 1594 1648 1868 1885 1447 1197 1060 1029 926 1110 855
18 22 69 140 77 290 175 8 5 0 7 7 7 13 17 22 26 17 11 13 11 3 1 24 21 13 9 9 8 9 9 10 3 5 2 8 5 264 1730 1771 1468 1311 1099 1063 1170 1035 1634 1534 1505
4 26 35 113 115 148 134 4 15 11 15 23 22 17 25 14 18 15 10 14 10 0 7 35 35 14 19 19 18 23 12 13 10 3 3 7 3 2 0 1648 1667 1148 917 1010 1051 1089 1158 1316 1135
44 46 41 60 62 119 151 13 19 21 19 18 27 29 26 25 21 11 7 10 8 15 0 18 26 16 9 10 18 19 29 19 6 6 6 5 5 3 3 96 1157 1078 826 546 610 616 622 796 502
0 15 16 59 30 29 446 15 19 11 10 14 18 25 21 21 18 12 10 8 7 7 8 33 10 11 9 7 9 12 7 6 8 9 6 10 9 7 4 3 2 35 210 496 326 358 314 515 694
CIN
0 0 0 0 0 0 0 0 0 0 0 0 0 0 0 0 0 0 0 -56 -107 -127 -127 -296 -376 -338 -300 -261 -216 -150 -103 -79 -61 -73 -59 -37 -30 -13 -3 0 -1 -1 0 0 0 -2 -2 0 -1
0 0 0 0 0 0 0 0 0 0 0 0 0 0 0 0 0 0 -69 -149 -137 -118 -111 -219 -386 -350 -306 -272 -212 -129 -77 -53 -60 -60 -49 -27 -14 -2 0 0 -3 -5 0 -1 -2 -2 0 -1 -9
0 0 0 0 0 0 0 0 0 0 0 0 0 0 0 0 0 0 -220 -131 -140 -111 -97 -142 -354 -356 -314 -280 -217 -126 -74 -63 -64 -60 -39 -25 -10 0 0 -2 -10 -6 -3 -3 -2 -4 -1 -14 -24
0 0 0 0 0 0 0 0 0 0 0 0 0 0 0 0 0 0 -213 -120 -132 -71 -65 -405 -330 -338 -287 -263 -205 -125 -93 -77 -68 -61 -37 -17 -6 0 0 -7 -5 -7 -2 -1 -1 -7 -16 -37 -43
0 0 0 0 0 0 0 0 0 0 0 0 0 0 0 0 0 0 -199 -151 -112 -67 -39 -112 -332 -307 -260 -222 -187 -147 -123 -82 -68 -53 -37 -19 -4 0 -11 -15 -6 -3 -2 -1 -8 -17 -34 -46 -46
0 0 0 0 0 0 0 0 0 0 0 0 0 0 0 0 0 0 -159 -147 -79 -70 -34 -16 -242 -248 -211 -191 -189 -194 -159 -92 -56 -52 -42 -23 -21 -29 -27 -17 -6 -5 -5 -8 -14 -36 -42 -48 -48
0 0 0 0 0 0 0 0 0 0 0 0 0 0 0 0 0 0 0 -123 -93 -25 -19 -10 -61 -118 -209 -172 -188 -216 -184 -110 -55 -48 -41 -31 -47 -47 -33 -19 -8 -6 -9 -17 -24 -49 -48 -46 -50
0 0 0 0 0 0 0 0 0 0 0 0 0 0 0 0 0 0 0 0 -98 -32 -5 -1 -9 -45 -50 -61 -188 -204 -191 -124 -58 -48 -42 -46 -56 -52 -37 -25 -11 -7 -10 -18 -35 -50 -49 -49 -63
0 0 0 0 0 0 0 0 0 0 0 0 0 0 0 0 0 0 0 0 0 -51 -2 -5 0 -7 -16 -12 -54 -199 -192 -136 -72 -37 -43 -51 0 -1 -6 -5 -21 -12 -16 -29 -41 -48 -55 -61 -78
0 0 0 0 0 0 0 0 0 0 0 0 0 0 0 0 0 0 0 0 0 0 -27 0 0 0 -7 -25 -6 -13 -31 -35 -6 -1 0 0 0 0 -1 -14 -36 -20 -29 -51 -55 -59 -78 -71 0
0 0 0 0 0 0 0 0 0 0 0 0 0 0 0 0 0 0 0 0 0 0 0 0 0 -25 -33 -11 -36 -26 -18 -16 -2 0 0 0 0 0 0 0 -1 0 -34 -1 -33 -31 0 -3 -6
0 0 0 0 0 0 0 0 0 0 0 0 0 0 0 0 0 0 0 0 0 0 0 -101 0 -37 -41 -28 -57 -64 -42 -19 -11 -1 -1 0 0 0 0 0 0 0 0 0 0 -3 -1 -1 -4
0 0 0 0 0 0 0 0 0 0 0 0 0 0 0 0 0 0 0 0 0 0 0 0 -45 -8 -35 -27 -26 -51 -45 -50 -14 -5 0 0 0 0 0 0 0 -2 0 0 -3 -1 -2 -7 -5
0 0 0 0 0 0 0 0 0 0 0 0 0 0 0 0 0 0 0 0 0 0 0 0 -37 -1 -6 -33 0 -8 -15 -65 -27 -10 -2 0 0 0 0 0 0 0 0 -1 -1 -8 -5 0 0
0 0 0 0 0 0 0 0 0 0 0 0 0 0 0 0 0 0 0 0 0 0 0 0 0 -5 -2 -12 -12 0 -31 -60 -78 -35 -4 0 -1 0 0 -6 0 -3 -1 -6 -5 -4 0 -4 -7
0 0 0 0 0 0 0 0 0 0 0 0 0 0 0 0 0 0 0 0 0 0 0 0 0 0 0 0 -15 0 -13 -64 -84 -62 -38 -2 -3 -1 0 0 0 -6 -10 0 -2 0 0 -3 -5
0 0 0 0 0 0 0 0 0 0 0 0 0 0 0 0 0 0 0 0 0 0 0 0 0 0 -10 0 0 0 0 -27 -84 -61 -60 -24 0 -1 0 0 0 -1 -1 0 0 0 0 -1 -3
0 0 0 0 0 0 0 0 0 0 0 0 0 0 0 0 0 -1 0 0 0 0 0 0 0 0 0 -8 0 0 -4 -11 -59 -40 -18 -55 -22 -5 0 -2 -3 -1 0 -21 0 0 0 0 -6
0 0 0 0 0 0 0 0 0 0 0 0 0 0 0 0 0 0 0 0 0 0 0 0 0 0 0 -3 0 0 0 -18 -33 -36 -2 -57 -86 -56 -13 -9 -14 0 -1 -33 -15 0 0 0 0
0 0 0 0 0 0 0 0 0 0 0 0 0 0 0 0 0 0 0 0 -4 -10 -15 -5 0 0 0 -3 0 0 0 -22 -36 -34 -2 -9 -102 -109 -42 -35 -34 -26 -28 -29 -28 -11 -2 0 -1
0 0 0 0 0 0 0 0 -2 -4 0 0 0 0 0 0 0 0 0 0 0 0 0 0 0 0 0 -35 -4 -11 -2 0 -8 -12 0 -9 -49 -113 -83 -40 -73 -63 -48 -42 -34 -31 -35 0 0
0 0 0 0 0 0 0 -22 0 0 0 0 0 0 0 0 0 0 0 0 0 0 0 0 0 0 0 -8 -100 -21 0 0 -12 -8 -19 -10 -8 -103 -100 -60 -90 -92 -76 -72 -82 -28 -39 -15 -57
0 0 0 0 -71 -4 -29 0 0 0 0 0 0 0 0 0 0 0 0 0 0 0 0 0 0 0 0 0 -40 -8 -4 0 -3 -11 -8 0 -3 -44 -104 -91 -79 -115 -119 -103 -42 -57 -33 -26 -44
0 0 0 -15 0 0 0 0 -5 0 0 0 0 0 0 0 0 0 0 0 0 0 0 0 0 0 0 0 -49 -1 -18 0 -7 -2 0 -3 -26 -42 -16 -94 -79 -98 -120 -127 -78 -59 -37 -35 -31
0 0 0 0 -1 0 -12 0 0 0 0 0 0 0 0 0 0 0 0 0 0 0 0 0 0 0 0 0 0 0 -11 -15 -5 -70 -6 -35 -72 -67 -17 -16 -27 -88 -131 -110 -74 -70 -71 -35 -53
0 0 0 -5 0 -6 -29 -3 0 0 0 0 0 0 0 0 0 0 0 0 0 0 0 0 0 0 0 0 0 0 0 -5 -23 0 0 -33 -23 -56 -36 -22 -4 -19 -62 -71 -76 -62 -57 -25 -27
0 0 -1 0 -10 0 0 0 0 0 0 0 0 0 0 0 0 0 0 0 0 0 0 0 0 0 0 0 0 0 0 0 0 0 0 -124 -153 -255 -27 -33 -24 -36 -62 -65 -57 -41 -1 0 0
0 0 -2 0 0 0 -2 0 0 0 0 0 0 0 0 0 0 0 0 0 0 0 0 0 0 0 0 0 0 0 0 0 0 0 0 0 0 0 0 -22 -32 -60 -68 -31 -42 -34 -5 0 -2
0 -4 0 -14 -2 0 0 -2 0 0 0 0 0 0 0 0 0 0 0 0 0 0 0 0 0 0 0 0 0 0 0 0 0 0 0 0 0 0 0 -117 -44 -46 -57 -71 -53 -55 -64 -14 -53
0 -2 0 0 0 -10 0 0 0 0 0 0 0 0 0 0 0 0 0 0 0 0 0 0 0 0 0 0 0 0 0 0 0 0 0 0 0 0 0 0 0 -3 -99 -29 -68 -69 -87 -48 -18
Wind_Speed
12 13 8 7 9 8 14 7 6 3 4 7 6 7 12 11 9 7 11 13 7 5 14 16 12 14 13 13 12 11 11 13 13 14 13 12 12 12 11 10 10 10 10 11 11 10 10 9 8
11 5 7 8 9 13 12 10 6 3 9 7 8 9 10 4 3 8 14 20 12 7 12 16 13 13 14 13 12 11 11 12 13 14 14 13 13 12 11 10 9 9 10 11 9 9 10 8 8
13 8 10 9 14 14 13 11 8 6 2 5 4 4 5 8 12 12 18 17 7 7 12 14 12 12 13 12 12 11 12 12 13 14 15 15 14 13 12 11 10 9 10 10 10 9 9 9 9
7 7 8 11 19 15 10 7 3 7 6 5 5 10 6 4 7 14 18 15 6 4 10 19 11 9 11 12 11 11 11 12 12 13 14 14 14 13 12 11 10 10 9 9 8 7 9 9 9
9 9 12 16 19 17 13 8 16 16 14 9 8 13 11 6 8 14 16 15 7 3 7 13 11 8 10 12 12 11 11 11 12 13 13 13 13 13 11 11 9 9 8 7 8 8 9 8 9
10 6 13 15 17 13 5 7 15 15 13 11 10 13 7 4 13 13 13 14 8 4 5 11 8 5 7 9 10 10 12 12 11 12 13 13 13 11 11 11 9 9 9 7 9 10 10 9 8
12 12 16 19 19 16 14 7 11 13 13 13 13 10 9 6 17 17 16 9 9 6 5 4 11 11 4 5 7 9 11 11 11 11 11 11 11 11 10 10 9 8 8 9 9 9 9 9 8
7 11 18 17 16 14 10 9 13 13 15 13 12 8 10 15 15 16 15 17 4 4 5 8 11 13 12 11 5 7 8 10 10 11 10 8 9 11 10 9 9 9 8 9 9 9 9 9 9
7 8 13 17 16 15 15 14 9 16 16 15 15 11 13 18 18 18 16 13 13 1 7 9 10 12 13 13 11 8 8 9 8 9 9 10 11 12 13 11 13 9 9 9 9 9 9 8 7
9 11 16 15 10 14 14 13 16 19 21 21 19 17 15 18 19 20 19 14 13 15 6 10 10 10 11 11 12 13 11 11 11 12 13 11 13 12 12 12 11 9 9 9 10 10 9 10 9
8 14 15 17 13 14 16 20 19 21 23 21 23 23 22 21 18 19 19 17 15 14 14 10 11 7 9 10 8 8 9 9 10 14 12 12 10 8 9 7 8 9 9 8 9 8 8 12 4
9 13 12 12 13 16 18 20 22 23 25 24 24 24 24 23 20 17 18 18 17 16 15 10 13 10 9 10 10 10 10 10 9 12 13 10 8 9 9 8 9 8 8 9 10 8 10 9 6
16 13 8 11 14 17 19 20 23 23 23 22 21 19 20 20 22 19 19 19 19 18 16 14 12 14 15 15 11 11 10 10 11 12 11 11 10 9 10 9 8 7 8 9 7 6 5 5 2
10 12 16 17 19 19 19 17 17 20 22 21 19 20 21 22 22 19 18 19 21 20 18 13 14 14 16 15 16 10 9 11 8 6 9 13 9 9 9 9 10 10 7 6 6 5 6 8 8
10 16 15 14 4 10 14 17 15 13 19 20 18 19 20 24 24 24 22 22 21 21 21 17 14 12 15 17 16 12 11 10 10 9 8 13 12 12 12 8 8 7 8 7 5 4 7 5 5
15 13 10 3 5 7 9 19 13 16 16 19 21 20 22 23 24 25 25 23 21 21 22 20 16 14 17 15 14 12 12 11 11 10 8 11 10 12 13 11 11 10 6 7 6 8 9 5 4
12 9 15 12 6 7 10 26 19 17 15 18 19 19 20 21 22 21 24 24 22 22 20 19 18 17 15 17 14 14 13 13 13 13 12 11 11 11 11 9 9 9 10 8 8 9 9 7 5
13 16 15 14 12 16 18 22 19 17 13 13 16 20 22 25 28 28 28 23 22 22 20 20 17 16 15 15 14 14 12 12 13 13 14 17 11 12 10 8 9 10 8 7 9 9 8 7 6
12 16 18 15 13 11 17 22 20 18 14 13 17 18 20 22 26 28 28 27 25 20 22 22 21 15 12 11 13 14 13 13 13 14 16 19 14 14 13 9 10 9 10 12 9 8 10 8 7
14 17 19 15 5 14 19 22 21 2 8 10 15 18 19 22 23 24 25 28 22 24 19 18 17 17 19 15 13 14 13 13 13 13 14 16 18 16 15 12 11 11 10 11 12 11 8 7 7
15 16 18 18 18 18 20 18 14 7 7 17 17 19 19 20 20 21 22 22 24 20 22 20 22 20 22 24 14 14 14 13 13 14 12 14 18 15 15 15 12 12 10 9 11 11 13 9 8
15 11 13 18 15 14 16 15 16 6 12 18 20 20 19 21 19 19 20 20 20 19 19 21 23 22 22 26 21 21 18 16 12 12 13 13 18 18 16 14 13 12 10 10 13 11 12 10 8
10 11 16 20 19 18 20 12 7 9 16 22 21 20 21 19 21 20 20 20 19 16 15 16 20 20 19 20 27 18 21 14 13 12 16 15 15 18 19 15 14 13 10 12 12 12 14 11 9
12 14 20 20 13 13 17 5 6 8 14 17 18 20 21 19 19 19 19 20 17 16 13 13 18 10 12 14 18 18 21 17 12 14 12 11 11 12 17 17 14 14 12 12 11 12 14 11 11
9 13 9 8 7 15 6 9 8 12 14 14 16 18 20 19 18 19 21 19 18 18 15 14 14 10 11 11 11 10 16 18 12 3 7 10 7 8 10 14 15 12 13 12 12 12 12 13 11
11 10 7 8 11 19 23 5 6 12 14 15 16 15 20 21 18 19 19 17 18 16 16 14 12 10 13 11 13 12 13 2 3 7 10 6 6 7 10 11 8 12 12 11 11 9 9 11 10
3 9 6 11 19 15 6 5 3 15 16 17 17 19 19 21 19 19 20 17 17 14 16 14 11 10 13 14 13 14 12 11 6 15 11 5 7 7 9 12 12 7 9 10 12 9 12 11 13
11 6 6 4 6 10 4 5 6 15 16 15 15 17 17 20 20 18 18 17 16 16 14 13 12 16 16 15 12 11 13 14 13 13 11 11 9 10 11 5 10 8 8 9 11 10 11 12 10
7 5 4 10 10 7 9 5 6 10 12 14 14 14 16 17 17 17 18 17 15 16 16 16 18 19 18 16 12 12 11 11 11 15 16 11 11 11 10 9 5 7 7 7 6 6 8 10 10
5 6 10 5 8 7 6 5 4 8 11 12 13 13 14 16 16 15 16 16 19 20 19 20 18 20 18 17 18 21 16 20 21 12 13 13 13 12 12 12 15 11 4 3 8 9 9 12 13
Wind_Direction
261 232 251 254 246 228 269 256 23 250 240 47 26 322 325 306 298 338 7 42 350 243 145 163 159 159 154 152 149 150 155 153 151 150 154 156 156 157 156 155 162 165 160 163 168 179 175 160 146
285 246 237 270 257 257 247 216 174 339 42 323 279 268 244 265 341 342 352 356 337 232 156 174 165 162 157 155 151 148 146 150 152 155 156 157 160 160 159 157 167 163 162 166 170 176 164 149 144
262 255 266 239 238 259 282 57 33 34 51 334 290 30 348 326 18 353 358 345 333 212 161 168 162 164 160 155 150 149 142 145 155 159 160 160 163 165 163 162 169 165 167 169 171 175 143 140 138
225 205 242 253 262 266 267 302 175 252 229 169 305 294 335 63 2 8 357 357 336 195 169 130 152 169 160 157 154 150 140 143 155 159 162 162 165 167 163 160 165 166 166 170 166 149 132 139 142
237 262 257 251 257 271 284 306 292 289 288 284 319 295 306 324 38 4 359 356 339 221 165 150 147 174 168 160 160 155 143 149 155 158 156 160 165 166 157 159 163 159 163 158 156 134 134 141 147
256 251 265 263 267 268 211 291 293 295 300 288 263 284 294 353 43 358 5 2 348 271 210 137 152 182 178 163 164 157 148 152 157 153 153 161 162 160 157 159 164 165 161 162 143 142 139 149 150
256 280 272 285 290 294 296 292 286 308 306 302 355 299 293 355 31 352 345 18 346 300 208 188 175 189 190 168 168 159 155 156 161 153 155 164 156 151 161 161 166 169 160 147 153 143 147 149 151
296 284 275 273 281 284 311 323 325 305 319 339 297 283 308 29 1 339 335 329 19 292 238 225 175 187 196 191 172 166 159 160 165 160 157 151 151 156 162 162 168 168 163 156 153 150 153 150 154
259 259 264 278 299 334 349 339 323 323 298 293 290 293 304 335 329 320 315 315 323 211 262 225 208 193 198 198 180 178 169 169 166 165 156 160 193 180 168 192 148 167 163 158 154 156 149 146 147
253 272 281 322 337 313 328 298 298 298 295 292 295 292 305 325 309 308 303 302 311 302 215 238 221 217 208 207 179 198 190 196 197 192 180 197 205 183 184 164 148 158 159 159 156 152 151 186 175
274 259 307 316 317 317 289 289 298 295 286 293 301 307 300 292 293 289 295 293 290 296 299 197 225 163 232 224 203 188 199 201 200 200 188 203 201 176 194 154 166 174 177 179 174 162 195 207 169
271 280 293 298 298 295 287 293 287 285 288 291 287 289 291 288 283 280 283 290 293 291 286 269 211 189 219 224 202 211 200 194 200 201 197 200 208 173 192 184 184 182 179 188 194 186 209 206 177
261 283 304 292 285 278 288 285 288 287 286 283 288 290 292 288 286 285 287 287 288 283 283 279 221 203 208 225 210 211 189 213 206 185 203 205 193 191 184 195 177 175 183 190 193 197 207 225 185
323 301 289 280 276 275 278 293 300 287 283 280 273 284 290 288 289 290 287 286 285 284 279 279 279 208 213 216 240 201 204 187 212 202 191 203 199 196 183 194 184 180 193 186 189 177 195 219 205
285 286 285 264 313 296 294 278 292 337 312 303 291 287 287 292 291 289 287 282 277 274 276 272 269 240 201 217 228 221 211 185 194 191 210 203 188 205 215 183 181 187 194 193 184 189 207 221 228
252 263 256 93 261 323 292 290 308 310 307 299 288 285 286 283 282 285 284 281 279 273 271 271 270 270 205 204 224 221 202 199 195 187 187 208 188 205 222 178 197 173 179 197 186 200 204 217 221
180 276 317 311 280 302 262 297 314 320 308 303 301 300 301 301 297 292 288 285 276 270 268 266 259 256 242 204 213 227 210 194 205 194 185 195 200 189 211 205 201 172 176 190 205 206 211 202 216
320 307 305 300 321 298 297 293 308 311 322 341 349 349 339 336 336 334 320 298 285 280 275 277 266 254 259 197 203 224 202 204 208 203 190 184 190 193 193 201 183 202 177 179 217 196 201 214 206
298 289 291 296 312 296 286 292 295 300 42 15 354 342 338 333 332 327 324 316 309 283 273 266 272 272 269 214 205 212 208 199 205 207 194 178 182 190 192 198 195 188 193 187 194 192 217 207 204
286 287 286 302 268 311 301 292 284 319 71 34 358 344 343 336 331 329 327 322 317 333 312 303 290 286 280 257 211 214 207 203 199 205 191 179 181 186 193 187 191 193 202 188 187 194 198 213 205
277 288 297 307 313 287 272 294 146 96 46 14 4 350 346 332 334 331 328 325 319 323 321 318 307 288 276 278 206 201 208 210 199 199 193 187 177 184 194 189 182 187 197 197 197 192 198 200 207
282 296 303 295 303 300 316 283 293 38 26 356 355 354 344 335 336 335 336 326 320 317 317 307 296 279 278 288 285 189 218 203 191 195 195 185 182 182 190 188 184 180 194 198 205 196 196 194 188
282 321 292 289 286 284 279 250 89 37 355 352 354 350 342 338 336 338 339 333 320 316 313 301 290 277 289 285 282 192 214 204 189 191 191 194 186 183 189 191 185 185 189 201 207 201 203 203 194
287 283 279 259 260 272 278 260 61 19 347 345 346 349 345 345 337 343 345 339 325 318 318 311 298 311 314 314 281 200 209 208 195 189 188 186 178 197 185 189 191 190 190 197 203 200 208 204 206
232 276 298 281 238 262 255 314 49 23 16 359 349 356 348 352 349 347 348 342 328 324 328 318 317 328 356 341 21 9 244 216 206 94 195 155 166 195 213 194 192 199 192 193 196 200 207 207 210
301 280 292 301 301 305 309 312 92 31 26 8 355 7 355 356 353 349 349 346 330 324 329 328 335 335 28 359 18 29 21 27 201 132 18 89 171 165 196 214 233 195 191 197 196 198 204 207 217
96 253 354 281 278 269 248 119 165 12 8 3 359 359 359 357 351 351 352 346 333 332 340 335 1 7 37 27 25 31 23 24 50 37 54 7 10 5 200 187 205 207 205 199 194 205 207 213 215
239 307 287 224 282 296 312 113 6 353 357 357 1 356 357 356 352 355 354 342 343 343 333 360 16 33 38 43 30 37 25 35 39 28 44 11 13 3 347 220 199 198 199 206 195 203 211 200 222
191 252 288 288 269 280 286 100 4 4 8 360 358 355 354 353 353 357 352 345 346 352 354 4 21 36 44 59 50 55 53 42 31 32 35 2 11 7 360 326 196 207 205 205 200 220 202 208 209
282 20 321 285 286 315 315 92 23 25 17 13 0 356 355 353 353 357 356 351 359 3 359 8 11 31 30 35 34 37 31 42 46 34 41 22 20 19 14 14 27 5 319 205 202 218 221 221 221